Notices

What's New in latest Release from April 7th, 2021:

- Updated Glossary, including Speed of Maximum Gust, and Total Hourly Precipitation

- Updated national and regional climate services offices contacts and prices information

- Addition of station inventory lists for 1981-2010, 1971-2000, and 1961-1990 Normals.

If you haven't already, please take our survey and provide feedback about our website: https://eccc.sondage-survey.ca/f/LanguageSelection.aspx?s=442ca660-fcf1-47c0-95a9-59707d6fd709

Hourly Data Report for January 18, 2021

OTTAWA INTL A
ONTARIO
Current Station Operator: NAVCAN

45°19'00.000" N
75°40'00.000" W
114.90 m
6106001
71628
YOW

Download Data

Hourly Data (January 2021)
Hourly Data Report for January 18, 2021
TIME
LST
Temp Definition
°C
Dew Point Definition
°C
Rel Hum Definition
%
Precip. Amount Definition
mm

Wind Dir Definition
10's deg

Wind Spd Definition
km/h
Visibility Definition
km
Stn Press Definition
kPa
Hmdx Definition


Wind Chill Definition


Weather Definition


00:00 -6.9 -9.9 79   30 28 24.1 98.84   -15 LegendNANA
01:00 -7.3 -10.2 80   29 24 24.1 98.85   -15 Mainly Clear
02:00 -7.6 -10.1 82   28 17 24.1 98.88   -14 LegendNANA
03:00 -8.1 -10.3 84   28 17 24.1 98.91   -15 LegendNANA
04:00 -8.9 -11.0 85   27 14 24.1 98.93   -15 Clear
05:00 -10.2 -11.9 88   26 14 24.1 98.96   -17 LegendNANA
06:00 -10.2 -11.4 91   28 17 24.1 99.00   -17 LegendNANA
07:00 -10.0 -11.6 88   28 14 24.1 99.08   -16 Mostly Cloudy
08:00 -9.9 -12.3 83   28 15 24.1 99.13   -17 LegendNANA
09:00 -10.0 -12.9 80   29 19 24.1 99.20   -18 LegendNANA
10:00 -10.2 -13.4 78   28 24 24.1 99.26   -19 Mostly Cloudy
11:00 -9.5 -13.2 75   28 25 24.1 99.29   -18 LegendNANA
12:00 -8.7 -13.0 71   29 18 24.1 99.31   -16 LegendNANA
13:00 -8.5 -13.0 70   29 18 24.1 99.31   -16 Mostly Cloudy
14:00 -8.7 -13.2 70   28 19 24.1 99.36   -16 LegendNANA
15:00 -8.4 -13.3 68   28 19 24.1 99.45   -16 LegendNANA
16:00 -9.1 -13.9 69   27 12 24.1 99.56   -15 Mainly Clear
17:00 -11.6 -15.2 75   25 14 24.1 99.64   -18 LegendNANA
18:00 -12.9 -15.8 80   27 10 24.1 99.72   -19 LegendNANA
19:00 -11.8 -15.0 77   28 11 24.1 99.80   -18 Clear
20:00 -12.9 -15.2 83   28 7 24.1 99.83   -17 LegendNANA
21:00 -14.9 -17.5 81   25 5 24.1 99.86   -18 LegendNANA
22:00 -13.7 -15.6 86   21 7 24.1 99.92   -18 Mostly Cloudy
23:00 -13.3 -15.1 86   22 9 24.1 99.97   -19 LegendNANA

Notes on Data Quality.

Legend

  • E = Estimated
  • M = Missing
  • NA = Not Available*
  • [empty] = Indicates an unobserved value
Date modified: